Time,TemperatureF,DewpointF,PressureIn,WindDirection,WindDirectionDegrees,WindSpeedMPH,WindSpeedGustMPH,Humidity,HourlyPrecipIn,Conditions,Clouds,dailyrainin,SoftwareType,DateUTC
2013-01-06 16:12:00,34.0,31.0,-100.00,WNW,290,14.0,22.0,85,-99.99,,,-99.99,,2013-01-06 21:12:00,
2013-01-06 16:33:00,34.0,31.0,-100.00,WNW,295,9.0,23.0,88,-99.99,,,-99.99,,2013-01-06 21:33:00,
2013-01-06 16:42:00,33.0,31.0,-100.00,West,260,11.0,17.0,89,-99.99,,,-99.99,,2013-01-06 21:42:00,
2013-01-06 16:52:00,33.0,31.0,-100.00,WNW,290,9.0,19.0,91,-99.99,,,-99.99,,2013-01-06 21:52:00,
2013-01-06 17:02:00,33.0,31.0,-100.00,West,280,10.0,17.0,92,-99.99,,,-99.99,,2013-01-06 22:02:00,
2013-01-06 17:12:00,33.0,31.0,-100.00,West,280,9.0,20.0,92,-99.99,,,-99.99,,2013-01-06 22:12:00,
2013-01-06 17:22:00,33.0,31.0,-100.00,West,280,9.0,20.0,92,-99.99,,,-99.99,,2013-01-06 22:22:00,
2013-01-06 17:33:00,33.0,31.0,-100.00,NW,305,10.0,14.0,94,-99.99,,,-99.99,,2013-01-06 22:33:00,
2013-01-06 17:43:00,32.0,31.0,-100.00,West,265,9.0,13.0,94,-99.99,,,-99.99,,2013-01-06 22:43:00,
2013-01-06 17:52:00,32.0,31.0,-100.00,West,270,8.0,13.0,94,-99.99,,,-99.99,,2013-01-06 22:52:00,
2013-01-06 18:02:00,32.0,31.0,-100.00,WNW,290,9.0,15.0,94,-99.99,,,-99.99,,2013-01-06 23:02:00,
2013-01-06 18:12:00,32.0,31.0,-100.00,WNW,290,10.0,16.0,94,-99.99,,,-99.99,,2013-01-06 23:12:00,
2013-01-06 18:22:00,32.0,31.0,-100.00,WNW,290,7.0,12.0,94,-99.99,,,-99.99,,2013-01-06 23:22:00,
2013-01-06 18:33:00,32.0,31.0,-100.00,West,270,10.0,15.0,94,-99.99,,,-99.99,,2013-01-06 23:33:00,
2013-01-06 18:43:00,32.0,31.0,-100.00,West,270,6.0,14.0,94,-99.99,,,-99.99,,2013-01-06 23:43:00,
2013-01-06 18:52:00,32.0,31.0,-100.00,West,270,6.0,14.0,94,-99.99,,,-99.99,,2013-01-06 23:52:00,
2013-01-06 19:02:00,32.0,30.0,-100.00,WSW,255,6.0,12.0,92,-99.99,,,-99.99,,2013-01-07 00:02:00,
2013-01-06 19:12:00,32.0,30.0,-100.00,WNW,285,6.0,9.0,92,-99.99,,,-99.99,,2013-01-07 00:12:00,
2013-01-06 19:23:00,32.0,30.0,-100.00,WNW,285,7.0,12.0,92,-99.99,,,-99.99,,2013-01-07 00:23:00,
2013-01-06 19:33:00,32.0,30.0,-100.00,West,270,6.0,16.0,92,-99.99,,,-99.99,,2013-01-07 00:33:00,
2013-01-06 19:42:00,32.0,30.0,-100.00,West,270,6.0,16.0,92,-99.99,,,-99.99,,2013-01-07 00:42:00,
2013-01-06 19:52:00,32.0,30.0,-100.00,West,280,7.0,12.0,92,-99.99,,,-99.99,,2013-01-07 00:52:00,
2013-01-06 20:02:00,31.0,29.0,-100.00,WNW,300,7.0,11.0,92,-99.99,,,-99.99,,2013-01-07 01:02:00,
2013-01-06 20:12:00,31.0,30.0,-100.00,West,260,4.0,11.0,92,-99.99,,,-99.99,,2013-01-07 01:12:00,
2013-01-06 20:23:00,31.0,29.0,-100.00,West,260,7.0,11.0,92,-99.99,,,-99.99,,2013-01-07 01:23:00,
2013-01-06 20:32:00,31.0,29.0,-100.00,West,280,4.0,10.0,92,-99.99,,,-99.99,,2013-01-07 01:32:00,
2013-01-06 20:42:00,31.0,29.0,-100.00,West,260,7.0,12.0,92,-99.99,,,-99.99,,2013-01-07 01:42:00,
2013-01-06 20:52:00,31.0,29.0,-100.00,WSW,250,6.0,10.0,93,-99.99,,,-99.99,,2013-01-07 01:52:00,
2013-01-06 21:02:00,31.0,29.0,-100.00,West,280,3.0,9.0,93,-99.99,,,-99.99,,2013-01-07 02:02:00,
2013-01-06 21:12:00,31.0,29.0,-100.00,West,265,6.0,9.0,93,-99.99,,,-99.99,,2013-01-07 02:12:00,
2013-01-06 21:23:00,31.0,30.0,-100.00,West,280,4.0,9.0,94,-99.99,,,-99.99,,2013-01-07 02:23:00,
2013-01-06 21:32:00,31.0,30.0,-100.00,West,280,5.0,9.0,94,-99.99,,,-99.99,,2013-01-07 02:32:00,
2013-01-06 21:42:00,31.0,30.0,-100.00,West,280,6.0,9.0,94,-99.99,,,-99.99,,2013-01-07 02:42:00,
2013-01-06 21:52:00,31.0,30.0,-100.00,West,270,6.0,11.0,94,-99.99,,,-99.99,,2013-01-07 02:52:00,
2013-01-06 22:02:00,31.0,30.0,-100.00,West,280,6.0,9.0,94,-99.99,,,-99.99,,2013-01-07 03:02:00,
2013-01-06 22:12:00,32.0,30.0,-100.00,West,280,9.0,12.0,94,-99.99,,,-99.99,,2013-01-07 03:12:00,
2013-01-06 22:22:00,32.0,30.0,-100.00,WNW,285,5.0,12.0,94,-99.99,,,-99.99,,2013-01-07 03:22:00,
2013-01-06 22:33:00,32.0,30.0,-100.00,West,275,5.0,8.0,94,-99.99,,,-99.99,,2013-01-07 03:33:00,
2013-01-06 22:43:00,32.0,30.0,-100.00,WNW,285,4.0,9.0,94,-99.99,,,-99.99,,2013-01-07 03:43:00,
2013-01-06 22:52:00,32.0,31.0,-100.00,WNW,290,7.0,10.0,94,-99.99,,,-99.99,,2013-01-07 03:52:00,
2013-01-06 23:02:00,32.0,31.0,-100.00,WNW,285,5.0,9.0,94,-99.99,,,-99.99,,2013-01-07 04:02:00,
2013-01-06 23:12:00,32.0,30.0,-100.00,WNW,290,6.0,9.0,94,-99.99,,,-99.99,,2013-01-07 04:12:00,
2013-01-06 23:22:00,32.0,31.0,-100.00,WNW,290,6.0,7.0,94,-99.99,,,-99.99,,2013-01-07 04:22:00,
2013-01-06 23:32:00,32.0,31.0,-100.00,WNW,290,6.0,9.0,94,-99.99,,,-99.99,,2013-01-07 04:32:00,
2013-01-06 23:42:00,32.0,31.0,-100.00,WNW,285,6.0,8.0,94,-99.99,,,-99.99,,2013-01-07 04:42:00,
2013-01-06 23:52:00,32.0,31.0,-100.00,WNW,285,4.0,8.0,93,-99.99,,,-99.99,,2013-01-07 04:52:00,